owner,sensor,date,latitude,longitude,vertical_datum,sea_water_temperature,qcFlag 
TCOON,ioos:station:TCOON:005:1,2011-03-03T16:00:00Z,27.6346,-97.2370,0.0,18.7,2 
TCOON,ioos:station:TCOON:005:1,2011-03-03T17:00:00Z,27.6346,-97.2370,0.0,19.6,2 
TCOON,ioos:station:TCOON:005:1,2011-03-03T18:00:00Z,27.6346,-97.2370,0.0,20.0,2 
TCOON,ioos:station:TCOON:005:1,2011-03-03T19:00:00Z,27.6346,-97.2370,0.0,20.4,2 
TCOON,ioos:station:TCOON:005:1,2011-03-03T20:00:00Z,27.6346,-97.2370,0.0,20.6,2 
TCOON,ioos:station:TCOON:005:1,2011-03-03T21:00:00Z,27.6346,-97.2370,0.0,21.3,2 
TCOON,ioos:station:TCOON:005:1,2011-03-03T22:00:00Z,27.6346,-97.2370,0.0,22.7,2 
TCOON,ioos:station:TCOON:005:1,2011-03-03T23:00:00Z,27.6346,-97.2370,0.0,23.0,2 
TCOON,ioos:station:TCOON:005:1,2011-03-04T00:00:00Z,27.6346,-97.2370,0.0,22.8,2 
TCOON,ioos:station:TCOON:005:1,2011-03-04T01:00:00Z,27.6346,-97.2370,0.0,22.2,2 
TCOON,ioos:station:TCOON:005:1,2011-03-04T02:00:00Z,27.6346,-97.2370,0.0,21.8,2 
TCOON,ioos:station:TCOON:005:1,2011-03-04T03:00:00Z,27.6346,-97.2370,0.0,20.8,2 
TCOON,ioos:station:TCOON:005:1,2011-03-04T04:00:00Z,27.6346,-97.2370,0.0,20.7,2 
TCOON,ioos:station:TCOON:005:1,2011-03-04T05:00:00Z,27.6346,-97.2370,0.0,20.4,2 
TCOON,ioos:station:TCOON:005:1,2011-03-04T06:00:00Z,27.6346,-97.2370,0.0,20.3,2 
TCOON,ioos:station:TCOON:005:1,2011-03-04T07:00:00Z,27.6346,-97.2370,0.0,20.2,2 
TCOON,ioos:station:TCOON:005:1,2011-03-04T08:00:00Z,27.6346,-97.2370,0.0,20.1,2 
TCOON,ioos:station:TCOON:005:1,2011-03-04T09:00:00Z,27.6346,-97.2370,0.0,19.9,2 
TCOON,ioos:station:TCOON:005:1,2011-03-04T10:00:00Z,27.6346,-97.2370,0.0,19.6,2 
TCOON,ioos:station:TCOON:005:1,2011-03-04T11:00:00Z,27.6346,-97.2370,0.0,19.6,2 
TCOON,ioos:station:TCOON:005:1,2011-03-04T12:00:00Z,27.6346,-97.2370,0.0,19.5,2 
TCOON,ioos:station:TCOON:005:1,2011-03-04T13:00:00Z,27.6346,-97.2370,0.0,19.6,2 
TCOON,ioos:station:TCOON:005:1,2011-03-04T14:00:00Z,27.6346,-97.2370,0.0,19.9,2 
TCOON,ioos:station:TCOON:005:1,2011-03-04T15:00:00Z,27.6346,-97.2370,0.0,20.2,2 
TCOON,ioos:station:TCOON:005:1,2011-03-04T16:00:00Z,27.6346,-97.2370,0.0,20.5,2 
TCOON,ioos:station:TCOON:005:1,2011-03-04T17:00:00Z,27.6346,-97.2370,0.0,20.8,2 
TCOON,ioos:station:TCOON:005:1,2011-03-04T18:00:00Z,27.6346,-97.2370,0.0,21.0,2 
TCOON,ioos:station:TCOON:005:1,2011-03-04T19:00:00Z,27.6346,-97.2370,0.0,21.3,2 
TCOON,ioos:station:TCOON:005:1,2011-03-04T20:00:00Z,27.6346,-97.2370,0.0,22.1,2 
TCOON,ioos:station:TCOON:005:1,2011-03-04T21:00:00Z,27.6346,-97.2370,0.0,22.3,2 
TCOON,ioos:station:TCOON:005:1,2011-03-04T22:00:00Z,27.6346,-97.2370,0.0,22.3,2 
TCOON,ioos:station:TCOON:005:1,2011-03-04T23:00:00Z,27.6346,-97.2370,0.0,22.3,2 
TCOON,ioos:station:TCOON:005:1,2011-03-05T00:00:00Z,27.6346,-97.2370,0.0,22.0,2 
TCOON,ioos:station:TCOON:005:1,2011-03-05T01:00:00Z,27.6346,-97.2370,0.0,21.8,2 
TCOON,ioos:station:TCOON:005:1,2011-03-05T02:00:00Z,27.6346,-97.2370,0.0,21.3,2 
TCOON,ioos:station:TCOON:005:1,2011-03-05T03:00:00Z,27.6346,-97.2370,0.0,20.8,2 
TCOON,ioos:station:TCOON:005:1,2011-03-05T04:00:00Z,27.6346,-97.2370,0.0,20.6,2 
TCOON,ioos:station:TCOON:005:1,2011-03-05T05:00:00Z,27.6346,-97.2370,0.0,20.5,2 
TCOON,ioos:station:TCOON:005:1,2011-03-05T06:00:00Z,27.6346,-97.2370,0.0,20.2,2 
TCOON,ioos:station:TCOON:005:1,2011-03-05T07:00:00Z,27.6346,-97.2370,0.0,20.2,2 
TCOON,ioos:station:TCOON:005:1,2011-03-05T08:00:00Z,27.6346,-97.2370,0.0,20.1,2 
TCOON,ioos:station:TCOON:005:1,2011-03-05T09:00:00Z,27.6346,-97.2370,0.0,20.1,2 
TCOON,ioos:station:TCOON:005:1,2011-03-05T10:00:00Z,27.6346,-97.2370,0.0,20.1,2 
TCOON,ioos:station:TCOON:005:1,2011-03-05T11:00:00Z,27.6346,-97.2370,0.0,20.1,2 
TCOON,ioos:station:TCOON:005:1,2011-03-05T12:00:00Z,27.6346,-97.2370,0.0,20.1,2 
TCOON,ioos:station:TCOON:005:1,2011-03-05T13:00:00Z,27.6346,-97.2370,0.0,20.0,2 
TCOON,ioos:station:TCOON:005:1,2011-03-05T14:00:00Z,27.6346,-97.2370,0.0,20.0,2 
TCOON,ioos:station:TCOON:005:1,2011-03-05T15:00:00Z,27.6346,-97.2370,0.0,20.0,2 
TCOON,ioos:station:TCOON:005:1,2011-03-05T16:00:00Z,27.6346,-97.2370,0.0,20.1,2 
TCOON,ioos:station:TCOON:005:1,2011-03-05T17:00:00Z,27.6346,-97.2370,0.0,20.2,2 
TCOON,ioos:station:TCOON:005:1,2011-03-05T18:00:00Z,27.6346,-97.2370,0.0,20.0,2 
TCOON,ioos:station:TCOON:005:1,2011-03-05T19:00:00Z,27.6346,-97.2370,0.0,19.8,2 
TCOON,ioos:station:TCOON:005:1,2011-03-05T20:00:00Z,27.6346,-97.2370,0.0,19.9,11111222 
TCOON,ioos:station:TCOON:005:1,2011-03-05T21:00:00Z,27.6346,-97.2370,0.0,20.2,2 
TCOON,ioos:station:TCOON:005:1,2011-03-05T22:00:00Z,27.6346,-97.2370,0.0,20.2,2 
TCOON,ioos:station:TCOON:005:1,2011-03-05T23:00:00Z,27.6346,-97.2370,0.0,20.2,2 
TCOON,ioos:station:TCOON:005:1,2011-03-06T00:00:00Z,27.6346,-97.2370,0.0,20.1,2 
TCOON,ioos:station:TCOON:005:1,2011-03-06T01:00:00Z,27.6346,-97.2370,0.0,19.8,2 
TCOON,ioos:station:TCOON:005:1,2011-03-06T02:00:00Z,27.6346,-97.2370,0.0,19.6,2 
TCOON,ioos:station:TCOON:005:1,2011-03-06T03:00:00Z,27.6346,-97.2370,0.0,19.3,2 
TCOON,ioos:station:TCOON:005:1,2011-03-06T04:00:00Z,27.6346,-97.2370,0.0,19.0,2 
TCOON,ioos:station:TCOON:005:1,2011-03-06T05:00:00Z,27.6346,-97.2370,0.0,18.6,2 
TCOON,ioos:station:TCOON:005:1,2011-03-06T06:00:00Z,27.6346,-97.2370,0.0,18.1,2 
TCOON,ioos:station:TCOON:005:1,2011-03-06T07:00:00Z,27.6346,-97.2370,0.0,17.5,2 
TCOON,ioos:station:TCOON:005:1,2011-03-06T08:00:00Z,27.6346,-97.2370,0.0,17.0,2 
TCOON,ioos:station:TCOON:005:1,2011-03-06T09:00:00Z,27.6346,-97.2370,0.0,15.9,2 
TCOON,ioos:station:TCOON:005:1,2011-03-06T10:00:00Z,27.6346,-97.2370,0.0,14.3,2 
TCOON,ioos:station:TCOON:005:1,2011-03-06T11:00:00Z,27.6346,-97.2370,0.0,14.2,2 
TCOON,ioos:station:TCOON:005:1,2011-03-06T12:00:00Z,27.6346,-97.2370,0.0,14.0,2 
TCOON,ioos:station:TCOON:005:1,2011-03-06T13:00:00Z,27.6346,-97.2370,0.0,13.5,2 
TCOON,ioos:station:TCOON:005:1,2011-03-06T14:00:00Z,27.6346,-97.2370,0.0,13.4,2 
TCOON,ioos:station:TCOON:005:1,2011-03-06T15:00:00Z,27.6346,-97.2370,0.0,13.3,2 
TCOON,ioos:station:TCOON:005:1,2011-03-06T16:00:00Z,27.6346,-97.2370,0.0,13.3,2 
TCOON,ioos:station:TCOON:005:1,2011-03-06T17:00:00Z,27.6346,-97.2370,0.0,14.1,2 
TCOON,ioos:station:TCOON:005:1,2011-03-06T18:00:00Z,27.6346,-97.2370,0.0,15.6,2 
TCOON,ioos:station:TCOON:005:1,2011-03-06T19:00:00Z,27.6346,-97.2370,0.0,16.7,2 
TCOON,ioos:station:TCOON:005:1,2011-03-06T20:00:00Z,27.6346,-97.2370,0.0,17.3,2 
TCOON,ioos:station:TCOON:005:1,2011-03-06T21:00:00Z,27.6346,-97.2370,0.0,17.8,2 
TCOON,ioos:station:TCOON:005:1,2011-03-06T22:00:00Z,27.6346,-97.2370,0.0,18.1,2 
TCOON,ioos:station:TCOON:005:1,2011-03-06T23:00:00Z,27.6346,-97.2370,0.0,18.2,2 
TCOON,ioos:station:TCOON:005:1,2011-03-07T00:00:00Z,27.6346,-97.2370,0.0,18.4,2 
TCOON,ioos:station:TCOON:005:1,2011-03-07T01:00:00Z,27.6346,-97.2370,0.0,18.2,2 
TCOON,ioos:station:TCOON:005:1,2011-03-07T02:00:00Z,27.6346,-97.2370,0.0,18.0,2 
TCOON,ioos:station:TCOON:005:1,2011-03-07T03:00:00Z,27.6346,-97.2370,0.0,17.7,2 
TCOON,ioos:station:TCOON:005:1,2011-03-07T04:00:00Z,27.6346,-97.2370,0.0,17.5,2 
TCOON,ioos:station:TCOON:005:1,2011-03-07T05:00:00Z,27.6346,-97.2370,0.0,17.3,2 
TCOON,ioos:station:TCOON:005:1,2011-03-07T06:00:00Z,27.6346,-97.2370,0.0,17.1,2 
TCOON,ioos:station:TCOON:005:1,2011-03-07T07:00:00Z,27.6346,-97.2370,0.0,17.0,2 
TCOON,ioos:station:TCOON:005:1,2011-03-07T08:00:00Z,27.6346,-97.2370,0.0,17.1,2 
TCOON,ioos:station:TCOON:005:1,2011-03-07T09:00:00Z,27.6346,-97.2370,0.0,17.2,2 
TCOON,ioos:station:TCOON:005:1,2011-03-07T10:00:00Z,27.6346,-97.2370,0.0,17.1,2 
TCOON,ioos:station:TCOON:005:1,2011-03-07T11:00:00Z,27.6346,-97.2370,0.0,17.0,2 
TCOON,ioos:station:TCOON:005:1,2011-03-07T12:00:00Z,27.6346,-97.2370,0.0,16.8,2 
TCOON,ioos:station:TCOON:005:1,2011-03-07T13:00:00Z,27.6346,-97.2370,0.0,16.6,2 
TCOON,ioos:station:TCOON:005:1,2011-03-07T14:00:00Z,27.6346,-97.2370,0.0,16.6,2 
TCOON,ioos:station:TCOON:005:1,2011-03-07T15:00:00Z,27.6346,-97.2370,0.0,16.5,11111222 
TCOON,ioos:station:TCOON:005:1,2011-03-07T16:00:00Z,27.6346,-97.2370,0.0,16.5,2 
TCOON,ioos:station:TCOON:005:1,2011-03-07T17:00:00Z,27.6346,-97.2370,0.0,16.6,2 
TCOON,ioos:station:TCOON:005:1,2011-03-07T18:00:00Z,27.6346,-97.2370,0.0,17.2,2 
TCOON,ioos:station:TCOON:005:1,2011-03-07T19:00:00Z,27.6346,-97.2370,0.0,17.6,2 
TCOON,ioos:station:TCOON:005:1,2011-03-07T20:00:00Z,27.6346,-97.2370,0.0,18.0,2 
TCOON,ioos:station:TCOON:005:1,2011-03-07T21:00:00Z,27.6346,-97.2370,0.0,18.3,2 
TCOON,ioos:station:TCOON:005:1,2011-03-07T22:00:00Z,27.6346,-97.2370,0.0,18.6,2 
TCOON,ioos:station:TCOON:005:1,2011-03-07T23:00:00Z,27.6346,-97.2370,0.0,18.9,2 
TCOON,ioos:station:TCOON:005:1,2011-03-08T00:00:00Z,27.6346,-97.2370,0.0,19.3,2 
TCOON,ioos:station:TCOON:005:1,2011-03-08T01:00:00Z,27.6346,-97.2370,0.0,19.6,2 
TCOON,ioos:station:TCOON:005:1,2011-03-08T03:00:00Z,27.6346,-97.2370,0.0,19.7,2 
TCOON,ioos:station:TCOON:005:1,2011-03-08T04:00:00Z,27.6346,-97.2370,0.0,19.6,2 
TCOON,ioos:station:TCOON:005:1,2011-03-08T05:00:00Z,27.6346,-97.2370,0.0,19.5,2 
TCOON,ioos:station:TCOON:005:1,2011-03-08T06:00:00Z,27.6346,-97.2370,0.0,19.4,2 
TCOON,ioos:station:TCOON:005:1,2011-03-08T07:00:00Z,27.6346,-97.2370,0.0,19.4,2 
TCOON,ioos:station:TCOON:005:1,2011-03-08T08:00:00Z,27.6346,-97.2370,0.0,19.4,2 
TCOON,ioos:station:TCOON:005:1,2011-03-08T09:00:00Z,27.6346,-97.2370,0.0,19.3,2 
TCOON,ioos:station:TCOON:005:1,2011-03-08T10:00:00Z,27.6346,-97.2370,0.0,19.4,2 
TCOON,ioos:station:TCOON:005:1,2011-03-08T11:00:00Z,27.6346,-97.2370,0.0,19.4,2 
TCOON,ioos:station:TCOON:005:1,2011-03-08T12:00:00Z,27.6346,-97.2370,0.0,19.4,11111222 
TCOON,ioos:station:TCOON:005:1,2011-03-08T13:00:00Z,27.6346,-97.2370,0.0,19.1,2 
TCOON,ioos:station:TCOON:005:1,2011-03-08T14:00:00Z,27.6346,-97.2370,0.0,18.9,2 
TCOON,ioos:station:TCOON:005:1,2011-03-08T15:00:00Z,27.6346,-97.2370,0.0,18.9,2 
TCOON,ioos:station:TCOON:005:1,2011-03-08T16:00:00Z,27.6346,-97.2370,0.0,18.9,2 
TCOON,ioos:station:TCOON:005:1,2011-03-08T17:00:00Z,27.6346,-97.2370,0.0,19.2,2 
TCOON,ioos:station:TCOON:005:1,2011-03-08T18:00:00Z,27.6346,-97.2370,0.0,19.6,2 
TCOON,ioos:station:TCOON:005:1,2011-03-08T19:00:00Z,27.6346,-97.2370,0.0,19.9,2 
TCOON,ioos:station:TCOON:005:1,2011-03-08T20:00:00Z,27.6346,-97.2370,0.0,20.1,2 
TCOON,ioos:station:TCOON:005:1,2011-03-08T21:00:00Z,27.6346,-97.2370,0.0,20.3,2 
TCOON,ioos:station:TCOON:005:1,2011-03-08T22:00:00Z,27.6346,-97.2370,0.0,20.5,2 
TCOON,ioos:station:TCOON:005:1,2011-03-08T23:00:00Z,27.6346,-97.2370,0.0,20.7,2 
TCOON,ioos:station:TCOON:005:1,2011-03-09T00:00:00Z,27.6346,-97.2370,0.0,20.9,2 
TCOON,ioos:station:TCOON:005:1,2011-03-09T01:00:00Z,27.6346,-97.2370,0.0,21.0,11111222 
TCOON,ioos:station:TCOON:005:1,2011-03-09T02:00:00Z,27.6346,-97.2370,0.0,21.1,2 
TCOON,ioos:station:TCOON:005:1,2011-03-09T03:00:00Z,27.6346,-97.2370,0.0,21.1,2 
TCOON,ioos:station:TCOON:005:1,2011-03-09T04:00:00Z,27.6346,-97.2370,0.0,21.0,2 
TCOON,ioos:station:TCOON:005:1,2011-03-09T05:00:00Z,27.6346,-97.2370,0.0,21.1,2 
TCOON,ioos:station:TCOON:005:1,2011-03-09T06:00:00Z,27.6346,-97.2370,0.0,21.1,2 
TCOON,ioos:station:TCOON:005:1,2011-03-09T09:00:00Z,27.6346,-97.2370,0.0,21.3,2 
TCOON,ioos:station:TCOON:005:1,2011-03-09T10:00:00Z,27.6346,-97.2370,0.0,21.3,2 
TCOON,ioos:station:TCOON:005:1,2011-03-09T11:00:00Z,27.6346,-97.2370,0.0,21.2,2 
TCOON,ioos:station:TCOON:005:1,2011-03-09T14:00:00Z,27.6346,-97.2370,0.0,21.0,2 
TCOON,ioos:station:TCOON:005:1,2011-03-09T15:00:00Z,27.6346,-97.2370,0.0,21.0,2 
TCOON,ioos:station:TCOON:005:1,2011-03-09T18:00:00Z,27.6346,-97.2370,0.0,21.1,2 
TCOON,ioos:station:TCOON:005:1,2011-03-09T20:00:00Z,27.6346,-97.2370,0.0,21.4,2 
TCOON,ioos:station:TCOON:005:1,2011-03-09T21:00:00Z,27.6346,-97.2370,0.0,21.9,2 
 
DISCLAIMER: The Gulf of Mexico Coastal and Ocean Observing (GCOOS) Data Portal aggregates data from the regional data providers for the convenience of all data users. Data published on this website should not be used for navigation or certain other uses as we cannot guarantee data accuracy or availability. The data and delivery services are provided 'as is' without warranty of any kind. Data Source: Gulf of Mexico Coastal Ocean Observing System Data Portal (http://data.gcoos.org/) 
